| time (UTC) | temp C | wind direction | speed KPH | gust KPH | rain 1hr cm | rain 24hr cm | rain mn cm | humidity % | barometer mb |
| 20260906141307 | 20 | 163 | 24.1 | 32.2 | 0.00 | 0.15 | 0.00 | 62 | 1008.9 |
| 20260906140407 | 20 | 177 | 24.1 | 38.6 | 0.00 | 0.15 | 0.00 | 63 | 1008.8 |
| 20260906135507 | 19 | 183 | 24.1 | 38.6 | 0.00 | 0.15 | 0.00 | 63 | 1008.9 |
| 20260906134607 | 19 | 175 | 29.0 | 40.2 | 0.00 | 0.15 | 0.00 | 63 | 1009.0 |
| 20260906133707 | 19 | 153 | 29.0 | 43.5 | 0.00 | 0.15 | 0.00 | 64 | 1009.0 |
| 20260906132807 | 19 | 167 | 27.4 | 43.5 | 0.00 | 0.15 | 0.00 | 64 | 1009.2 |
| 20260906131907 | 19 | 189 | 25.7 | 43.5 | 0.00 | 0.15 | 0.00 | 63 | 1009.3 |
| 20260906131007 | 19 | 178 | 25.7 | 37.0 | 0.00 | 0.15 | 0.00 | 63 | 1009.2 |
| 20260906130107 | 19 | 189 | 22.5 | 33.8 | 0.00 | 0.15 | 0.00 | 63 | 1009.3 |
| 20260906125207 | 19 | 160 | 29.0 | 41.8 | 0.00 | 0.15 | 0.00 | 63 | 1009.1 |
| 20260906124307 | 19 | 176 | 32.2 | 46.7 | 0.00 | 0.15 | 0.00 | 63 | 1009.2 |
| 20260906123407 | 19 | 176 | 35.4 | 48.3 | 0.00 | 0.15 | 0.00 | 63 | 1008.9 |
| 20260906122507 | 18 | 183 | 33.8 | 51.5 | 0.00 | 0.15 | 0.00 | 63 | 1008.6 |
| 20260906121607 | 18 | 167 | 33.8 | 53.1 | 0.00 | 0.15 | 0.00 | 63 | 1009.0 |
| 20260906120707 | 18 | 160 | 32.2 | 51.5 | 0.00 | 0.15 | 0.00 | 63 | 1009.0 |
| 20260906115807 | 18 | 169 | 32.2 | 59.5 | 0.00 | 0.15 | 0.00 | 64 | 1008.9 |
| 20260906113107 | 18 | 175 | 27.4 | 38.6 | 0.00 | 0.15 | 0.00 | 67 | 1009.8 |
| 20260906112207 | 18 | 169 | 29.0 | 43.5 | 0.00 | 0.15 | 0.00 | 67 | 1009.9 |
| 20260906110407 | 18 | 181 | 32.2 | 48.3 | 0.00 | 0.15 | 0.00 | 67 | 1009.7 |
| 20260906105507 | 18 | 179 | 35.4 | 48.3 | 0.00 | 0.15 | 0.00 | 67 | 1009.6 |
| 20260906104607 | 18 | 167 | 33.8 | 48.3 | 0.00 | 0.15 | 0.00 | 67 | 1009.7 |
| 20260906103707 | 18 | 177 | 38.6 | 61.2 | 0.00 | 0.15 | 0.00 | 68 | 1009.6 |
| 20260906102807 | 18 | 181 | 35.4 | 53.1 | 0.00 | 0.15 | 0.00 | 69 | 1009.6 |
| 20260906101007 | 18 | 176 | 32.2 | 48.3 | 0.00 | 0.15 | 0.00 | 70 | 1009.9 |
| 20260906100107 | 18 | 176 | 35.4 | 59.5 | 0.00 | 0.15 | 0.00 | 70 | 1010.2 |
| 20260906095208 | 18 | 170 | 40.2 | 59.5 | 0.00 | 0.15 | 0.00 | 70 | 1010.3 |
| 20260906094307 | 18 | 178 | 43.5 | 56.3 | 0.00 | 0.15 | 0.00 | 71 | 1009.8 |
| 20260906093407 | 18 | 173 | 32.2 | 54.7 | 0.00 | 0.15 | 0.00 | 71 | 1010.1 |
| 20260906092507 | 17 | 167 | 29.0 | 41.8 | 0.00 | 0.15 | 0.00 | 72 | 1010.5 |
| 20260906091607 | 17 | 163 | 32.2 | 49.9 | 0.00 | 0.15 | 0.00 | 73 | 1010.8 |
| 20260906090707 | 17 | 173 | 30.6 | 48.3 | 0.00 | 0.15 | 0.00 | 73 | 1010.9 |
| 20260906085807 | 17 | 184 | 29.0 | 48.3 | 0.00 | 0.15 | 0.00 | 74 | 1011.2 |
| 20260906084907 | 17 | 169 | 27.4 | 41.8 | 0.00 | 0.15 | 0.00 | 74 | 1011.4 |
| 20260906084007 | 17 | 167 | 27.4 | 40.2 | 0.00 | 0.15 | 0.00 | 75 | 1011.3 |
| 20260906082207 | 17 | 153 | 24.1 | 37.0 | 0.00 | 0.15 | 0.00 | 79 | 1011.4 |
| 20260906080407 | 17 | 176 | 20.9 | 33.8 | 0.00 | 0.15 | 0.00 | 81 | 1011.7 |
| 20260906075507 | 17 | 165 | 20.9 | 37.0 | 0.00 | 0.15 | 0.00 | 82 | 1012.0 |
| 20260906074607 | 17 | 172 | 19.3 | 32.2 | 0.00 | 0.15 | 0.00 | 83 | 1012.4 |
| 20260906073707 | 17 | 175 | 19.3 | 32.2 | 0.00 | 0.15 | 0.00 | 83 | 1012.6 |
| 20260906072807 | 17 | 177 | 20.9 | 35.4 | 0.00 | 0.15 | 0.00 | 87 | 1012.6 |
| 20260906071907 | 17 | 177 | 24.1 | 40.2 | 0.00 | 0.15 | 0.00 | 87 | 1012.6 |
| 20260906070108 | 17 | 179 | 29.0 | 40.2 | 0.00 | 0.15 | 0.00 | 87 | 1012.7 |
| 20260906065207 | 17 | 172 | 29.0 | 43.5 | 0.00 | 0.15 | 0.00 | 88 | 1012.5 |
| 20260906064307 | 17 | 183 | 30.6 | 43.5 | 0.00 | 0.20 | 0.00 | 88 | 1012.6 |
| 20260906062507 | 17 | 181 | 22.5 | 38.6 | 0.00 | 0.30 | 0.00 | 88 | 1012.9 |
| 20260906061607 | 17 | 168 | 22.5 | 33.8 | 0.00 | 0.30 | 0.00 | 88 | 1013.0 |
| 20260905223642 | 14 | 170 | 24.1 | 33.8 | 0.00 | 0.36 | 2.95 | 65 | 1012.8 |
| 20260905222742 | 14 | 174 | 17.7 | 30.6 | 0.00 | 0.38 | 2.95 | 65 | 1013.2 |
| 20260905221842 | 14 | 168 | 16.1 | 24.1 | 0.00 | 0.38 | 2.95 | 65 | 1013.3 |
| 20260905220942 | 14 | 154 | 14.5 | 22.5 | 0.00 | 0.38 | 2.95 | 65 | 1013.4 |
| 20260905220042 | 14 | 159 | 16.1 | 24.1 | 0.00 | 0.38 | 2.95 | 66 | 1013.7 |
| 20260905215142 | 14 | 163 | 17.7 | 27.4 | 0.00 | 0.38 | 2.95 | 66 | 1013.9 |
| 20260905214242 | 13 | 160 | 17.7 | 25.7 | 0.00 | 0.38 | 2.95 | 67 | 1014.1 |
| 20260905213342 | 13 | 176 | 14.5 | 20.9 | 0.00 | 0.38 | 2.95 | 67 | 1014.0 |
| 20260905212442 | 13 | 178 | 12.9 | 20.9 | 0.00 | 0.38 | 2.95 | 67 | 1014.4 |
| 20260905211542 | 13 | 171 | 12.9 | 20.9 | 0.00 | 0.38 | 2.95 | 67 | 1014.5 |
| 20260905210642 | 13 | 161 | 12.9 | 19.3 | 0.00 | 0.38 | 2.95 | 67 | 1014.8 |
| 20260905205742 | 14 | 165 | 12.9 | 17.7 | 0.00 | 0.38 | 2.95 | 68 | 1014.8 |
| 20260905204842 | 14 | 171 | 12.9 | 17.7 | 0.00 | 0.38 | 2.95 | 69 | 1015.0 |
| 20260905203942 | 13 | 166 | 9.7 | 16.1 | 0.00 | 0.38 | 2.95 | 68 | 1015.2 |
| 20260905203042 | 13 | 173 | 8.0 | 12.9 | 0.00 | 0.38 | 2.95 | 67 | 1015.4 |
| 20260905201242 | 14 | 165 | 8.0 | 12.9 | 0.00 | 0.38 | 2.95 | 66 | 1015.4 |
| 20260905200342 | 14 | 179 | 8.0 | 11.3 | 0.00 | 0.38 | 2.95 | 66 | 1015.4 |
| 20260905195442 | 14 | 167 | 6.4 | 11.3 | 0.00 | 0.38 | 2.95 | 65 | 1015.5 |
| 20260905193642 | 14 | 176 | 6.4 | 8.0 | 0.00 | 0.38 | 2.95 | 64 | 1015.6 |
| 20260905192742 | 14 | 177 | 6.4 | 11.3 | 0.00 | 0.43 | 2.95 | 63 | 1015.7 |
| 20260905191842 | 14 | 177 | 9.7 | 14.5 | 0.00 | 0.43 | 2.95 | 63 | 1015.8 |
| 20260905190943 | 15 | 166 | 8.0 | 12.9 | 0.00 | 0.43 | 2.95 | 62 | 1015.5 |
| 20260905184242 | 15 | 174 | 6.4 | 8.0 | 0.00 | 0.43 | 2.95 | 61 | 1015.7 |
| 20260905183342 | 15 | 170 | 6.4 | 9.7 | 0.00 | 0.43 | 2.95 | 60 | 1015.9 |
| 20260905182442 | 15 | 177 | 6.4 | 9.7 | 0.00 | 0.43 | 2.95 | 61 | 1015.6 |
| 20260905181542 | 15 | 174 | 6.4 | 11.3 | 0.00 | 0.43 | 2.95 | 61 | 1015.7 |
| 20260905180642 | 16 | 168 | 4.8 | 8.0 | 0.00 | 0.43 | 2.95 | 60 | 1015.6 |
| 20260905175742 | 16 | 165 | 6.4 | 11.3 | 0.00 | 0.43 | 2.95 | 60 | 1015.5 |
| 20260905173944 | 16 | 172 | 4.8 | 8.0 | 0.00 | 0.43 | 2.95 | 60 | 1015.7 |
| 20260905173042 | 16 | 169 | 3.2 | 6.4 | 0.00 | 0.43 | 2.95 | 60 | 1015.9 |
| 20260905171242 | 16 | 173 | 4.8 | 6.4 | 0.00 | 0.43 | 2.95 | 57 | 1016.1 |
| 20260905170342 | 16 | 165 | 4.8 | 8.0 | 0.00 | 0.43 | 2.95 | 56 | 1015.9 |
| 20260905165442 | 16 | 178 | 6.4 | 8.0 | 0.00 | 0.43 | 2.95 | 56 | 1015.9 |
| 20260905164544 | 16 | 162 | 6.4 | 11.3 | 0.00 | 0.43 | 2.95 | 56 | 1015.9 |
| 20260905163642 | 16 | 158 | 3.2 | 8.0 | 0.00 | 0.43 | 2.95 | 56 | 1015.8 |
| 20260905162743 | 16 | 223 | 1.6 | 6.4 | 0.00 | 0.43 | 2.95 | 55 | 1015.8 |
| 20260905161842 | 16 | 270 | 1.6 | 6.4 | 0.00 | 0.46 | 2.95 | 55 | 1015.9 |
| 20260905160042 | 17 | 142 | 3.2 | 6.4 | 0.00 | 0.46 | 2.95 | 54 | 1016.2 |
| 20260905155144 | 16 | 152 | 4.8 | 8.0 | 0.00 | 0.46 | 2.95 | 54 | 1016.4 |
| 20260905154242 | 16 | 154 | 4.8 | 8.0 | 0.00 | 0.46 | 2.95 | 55 | 1016.5 |
| 20260905153342 | 16 | 168 | 6.4 | 12.9 | 0.00 | 0.46 | 2.95 | 54 | 1016.3 |
| 20260905151542 | 16 | 177 | 8.0 | 12.9 | 0.00 | 0.46 | 2.95 | 56 | 1016.4 |
| 20260905150644 | 16 | 164 | 8.0 | 12.9 | 0.00 | 0.46 | 2.95 | 55 | 1016.7 |
| 20260905145742 | 16 | 131 | 4.8 | 8.0 | 0.00 | 0.46 | 2.95 | 54 | 1016.7 |
| 20260905144842 | 16 | 157 | 3.2 | 8.0 | 0.00 | 0.46 | 2.95 | 53 | 1017.0 |
| 20260905143942 | 16 | 236 | 4.8 | 9.7 | 0.00 | 0.46 | 2.95 | 52 | 1017.1 |
| 20260905143042 | 17 | 124 | 4.8 | 11.3 | 0.00 | 0.46 | 2.95 | 49 | 1017.0 |